{"data":{"norad_id":54689,"intl_designator":"2022-167H","name":"DONGPO 10","alt_names":[],"object_type":"PAYLOAD","status":"ACTIVE","operator":null,"country":"PRC","launch_date":"2022-12-09","launch_site_code":"SEAL","launch_vehicle":null,"mission":null,"orbit_class":"UNKNOWN","rcs_meters":null,"size_class":null,"mass_kg":null,"dimensions":null,"purposes":[],"wikipedia_slug":null,"has_3d_model":false,"image_url":null,"decayed_at":null,"tle_current":{"epoch":"2026-09-21T22:05:04.417728Z","epoch_age_seconds":39602,"freshness":"FRESH","line1":"1 54689U 22167H   26264.92019002  .00006801  00000+0  19557-3 0  9997","line2":"2 54689  97.7016  79.3339 0005801 120.5550 239.6266 15.36136223210201","mean_motion":15.36136223,"eccentricity":0.0005801,"inclination_deg":97.7016,"raan_deg":79.3339,"arg_perigee_deg":120.555,"mean_anomaly_deg":239.6266,"bstar":0.00019557,"rev_number":21020,"period_min":93.741686345222,"perigee_km":453.58229997137,"apogee_km":461.51306133787,"semimajor_km":6835.6846806546,"source":"CELESTRAK","updated_at":"2026-09-22T09:00:25.186059Z"}}}